Location: Kernascl�den
(48.0062°N, 3.3198°W)
Time: 16:50:19
(UTC+00:00)

CZ-4C R/B - Pass Details

Date: 21 January 2021
Orbit: 617 x 1385 km, 63.4° (Epoch: 28 February)

Event Time Altitude Azimuth Distance (km) Brightness Sun altitude
Rises 19:29:57 0° 288° (WNW) 3,320 6.4 -25.3°
Reaches altitude 10° 19:32:52 10° 305° (NW) 2,514 5.3 -25.8°
Maximum altitude 19:37:16 21° 353° (N) 2,022 4.2 -26.5°
Enters shadow 19:39:08 19° 16° (NNE) 2,214 4.2 -26.8°
